Pattimura Airport, Ambon
WAPP : now visible

Airfield :











YOU CAN JOIN US ON...

 
LOGIN :

Register | Disclaimer

   EN    FR    IT 

 









Legend :    VFR   Marginal VFR   IFR   Intensive IFR   Very Intensive IFR
Visi :
Ceiling :
>= 8 km
>= 3000ft
5 to 8 km
1000 to 3000 ft
1500m to 5 km
500 to 1000 ft
800 to 1500m
200 to 500 ft
< 800m
< 200 ft
Symbols :   Thunderstorms  Fog  Heavy snow  Heavy precipitations  Wind > 20 kt






- Airport Elevation : 33 ft
- IATA code : AMQ


WAPP - Pattimura , Ambon

CURRENT METAR :
  • 240930Z VRB01KT 9999 FEW018 27/23 Q1009 NOSIG

EXPIRED METARs :
  • 240900Z 13003KT 080V160 9999 FEW018 28/23 Q1009 NOSIG
  • 240830Z 15003KT 130V190 9999 SCT018 28/23 Q1008 NOSIG
  • 240800Z 09003KT 360V140 9999 SCT018 28/24 Q1008 NOSIG
  • 240730Z 21004KT 170V240 9999 SCT018 29/25 Q1008 NOSIG
  • 240700Z 19003KT 150V250 9999 SCT018 29/25 Q1008 NOSIG

TAF TAF WAPP
Valid from the 24 at 06:00 until the 25 at 06:00 UTC


240500Z 2406/2506 09004KT 9999 SCT018
TEMPO 2412/2416 7000 -RA BKN015
WAAF FIR / Asia



MET'MAP, your aeronautical weather chart ! - Copyright ORBIFLY December 2007 - Disclaimer

ORBIFLY MET'MAP TEAM :

Programming & Development : Alexandra Zaïnal
Concept & original design : Baudouin d'Aumeries
Assistance for programming : Marc-Olivier Méhu
Technical & hardware support : Manuel Goepfert

Contact : metmap@orbifly.com




SOURCES & CREDITS :

   NOAA       Earth
Advisory